CW4167 Weather Reports


Display with metric or nautical units.
time (UTC)temp
F
wind
direction
speed
MPH
gust
MPH
rain 1hr
in
rain 24hr
in
rain mn
in
humidity
%
barometer
mb
20260510115207 56 13 7.0 8.0 0.00 0.00 0.00 73 1010.5
20260510114706 56 8 6.0 7.0 0.00 0.00 0.00 74 1010.5
20260510114206 56 5 4.0 6.0 0.00 0.00 0.00 72 1010.5
20260510113206 57 333 5.0 7.0 0.00 0.00 0.00 69 1010.6
20260510111206 59 0 7.0 13.0 0.00 0.00 0.00 66 1010.8
20260510110708 59 340 9.0 10.0 0.00 0.00 0.00 65 1010.8
20260510110206 60 1 6.0 9.0 0.00 0.00 0.00 66 1010.8
20260510105707 59 333 6.0 8.0 0.00 0.00 0.00 69 1010.9
20260510105206 59 306 7.0 10.0 0.00 0.00 0.00 69 1010.9
20260510103705 58 357 3.0 7.0 0.00 0.00 0.00 71 1010.9
20260510102205 56 306 5.0 8.0 0.00 0.00 0.00 72 1011.1
20260510100206 57 295 4.0 10.0 0.00 0.00 0.00 69 1011.5
20260510095707 57 303 6.0 7.0 0.00 0.00 0.00 67 1011.5
20260510094706 58 304 5.0 6.0 0.00 0.00 0.00 68 1011.6
20260510094206 58 299 6.0 7.0 0.00 0.00 0.00 68 1011.6
20260510093707 58 262 3.0 8.0 0.00 0.00 0.00 69 1011.7
20260510093206 57 300 3.0 5.0 0.00 0.00 0.00 71 1011.9
20260510092706 57 139 3.0 6.0 0.00 0.00 0.00 70 1011.9
20260510092207 56 261 3.0 6.0 0.00 0.00 0.00 69 1011.9
20260510091706 56 201 1.0 5.0 0.00 0.00 0.00 71 1012.0
20260510090206 56 250 3.0 5.0 0.00 0.00 0.00 70 1012.0
20260510085206 56 241 6.0 7.0 0.00 0.00 0.00 68 1012.2
20260510084707 56 230 2.0 6.0 0.00 0.00 0.00 69 1012.2
20260510083706 56 208 1.0 5.0 0.00 0.00 0.00 69 1012.2
20260510081706 56 233 4.0 6.0 0.00 0.00 0.00 68 1012.2
20260510081207 56 212 2.0 5.0 0.00 0.00 0.00 69 1012.2
20260510080706 55 157 5.0 8.0 0.00 0.00 0.00 69 1012.2
20260510080206 55 151 5.0 7.0 0.00 0.00 0.00 69 1012.2
20260510075206 55 189 5.0 8.0 0.00 0.00 0.00 69 1012.2
20260510074705 55 209 5.0 7.0 0.00 0.00 0.00 70 1012.2
20260510074207 55 178 3.0 5.0 0.00 0.00 0.00 70 1012.2
20260510072706 54 196 1.0 5.0 0.00 0.00 0.00 71 1012.2
20260510071205 54 291 2.0 3.0 0.00 0.00 0.00 72 1012.3
20260510064707 52 290 0.0 5.0 0.00 0.00 0.00 75 1012.6
20260510064205 52 278 3.0 5.0 0.00 0.00 0.00 76 1012.6
20260510061707 50 120 5.0 6.0 0.00 0.00 0.00 76 1012.5
20260510055706 49 137 5.0 8.0 0.00 0.00 0.00 77 1012.6
20260510053205 48 131 7.0 10.0 0.00 0.00 0.00 77 1012.8
20260510052706 48 137 5.0 10.0 0.00 0.00 0.00 78 1012.9
20260510051208 47 130 8.0 13.0 0.00 0.00 0.00 78 1012.9
20260510045707 47 129 6.0 10.0 0.00 0.00 0.00 78 1013.0
20260510044205 47 126 9.0 10.0 0.00 0.00 0.00 77 1013.1
20260510043705 47 128 9.0 10.0 0.00 0.00 0.00 77 1013.4
20260510043206 47 125 8.0 9.0 0.00 0.00 0.00 77 1013.4
20260510042706 47 132 7.0 8.0 0.00 0.00 0.00 77 1013.4
20260510042206 47 133 8.0 10.0 0.00 0.00 0.00 77 1013.4
20260510041208 46 129 7.0 8.0 0.00 0.00 0.00 78 1013.6
20260510040706 46 128 8.0 8.0 0.00 0.00 0.00 78 1013.6
20260510035706 46 128 7.0 8.0 0.00 0.00 0.00 78 1013.6
20260510032705 46 134 6.0 7.0 0.00 0.00 0.00 79 1013.9
20260510032205 46 135 7.0 10.0 0.00 0.00 0.00 79 1013.9
20260510031706 46 124 7.0 8.0 0.00 0.00 0.00 79 1013.9
20260510025206 45 129 7.0 8.0 0.00 0.00 0.00 80 1014.1
20260510022706 44 127 7.0 7.0 0.00 0.00 0.00 81 1014.4
20260510022206 43 133 6.0 7.0 0.00 0.00 0.00 81 1014.4
20260510021705 43 135 7.0 8.0 0.00 0.00 0.00 81 1014.4
20260510020207 42 133 4.0 7.0 0.00 0.00 0.00 82 1014.7
20260510014205 41 127 3.0 5.0 0.00 0.00 0.00 80 1014.7
20260510012205 41 124 3.0 5.0 0.00 0.00 0.00 79 1014.7
20260510011706 41 125 2.0 3.0 0.00 0.00 0.00 79 1014.9
20260510005206 41 129 3.0 5.0 0.00 0.00 0.00 78 1015.4
20260510004706 41 125 3.0 6.0 0.00 0.00 0.00 78 1015.4
20260510004206 41 130 3.0 5.0 0.00 0.00 0.00 78 1015.4
20260510003206 41 122 4.0 5.0 0.00 0.00 0.00 79 1015.6
20260510002707 41 131 3.0 6.0 0.00 0.00 0.00 79 1015.7
20260510001705 41 124 5.0 5.0 0.00 0.00 0.00 78 1016.0
20260510001206 41 144 5.0 5.0 0.00 0.00 0.00 78 1016.0
20260509234705 41 137 5.0 7.0 0.00 0.00 0.00 78 1016.3
20260509233707 41 136 6.0 7.0 0.00 0.00 0.00 78 1016.5
20260509232709 41 137 6.0 7.0 0.00 0.00 0.00 77 1016.5
20260509231205 41 146 3.0 3.0 0.00 0.00 0.00 77 1016.9
20260509225205 41 147 0.0 0.0 0.00 0.00 0.00 77 1017.1
20260509224205 41 147 0.0 0.0 0.00 0.00 0.00 76 1017.1
20260509223705 41 147 0.0 0.0 0.00 0.00 0.00 76 1017.1
20260509222206 42 147 0.0 2.0 0.00 0.00 0.00 75 1017.2
20260509221705 42 147 2.0 3.0 0.00 0.00 0.00 75 1017.2
20260509221205 42 147 2.0 5.0 0.00 0.00 0.00 75 1017.2
20260509220205 42 150 3.0 5.0 0.00 0.00 0.00 74 1017.3
20260509215208 42 153 2.0 2.0 0.00 0.00 0.00 75 1017.4
20260509214206 42 153 3.0 5.0 0.00 0.00 0.00 74 1017.4
20260509213205 43 145 5.0 6.0 0.00 0.00 0.00 74 1017.4
20260509211705 43 133 3.0 3.0 0.00 0.00 0.00 73 1017.5
20260509211206 44 133 2.0 3.0 0.00 0.00 0.00 73 1017.5
20260509210205 44 133 2.0 3.0 0.00 0.00 0.00 72 1017.6
20260509205206 45 127 1.0 3.0 0.00 0.00 0.00 70 1017.6
20260509204704 46 127 0.0 0.0 0.00 0.00 0.00 70 1017.6
20260509204206 46 127 0.0 3.0 0.00 0.00 0.00 70 1017.6
20260509203705 46 127 2.0 5.0 0.00 0.00 0.00 69 1017.7
20260509203205 47 129 2.0 3.0 0.00 0.00 0.00 69 1017.6
20260509202706 47 136 3.0 3.0 0.00 0.00 0.00 68 1017.6
20260509202205 47 140 3.0 6.0 0.00 0.00 0.00 68 1017.5
20260509201205 48 119 5.0 6.0 0.00 0.00 0.00 68 1017.5
20260509195704 49 127 5.0 6.0 0.00 0.00 0.00 68 1017.6
20260509195206 49 129 5.0 6.0 0.00 0.00 0.00 68 1017.7
20260509194705 49 131 5.0 6.0 0.00 0.00 0.00 67 1017.7
20260509194206 50 126 4.0 6.0 0.00 0.00 0.00 67 1017.7
20260509192706 51 123 6.0 7.0 0.00 0.00 0.00 65 1017.6
20260509185206 54 115 7.0 10.0 0.00 0.00 0.00 58 1017.3
20260509184207 55 112 7.0 13.0 0.00 0.00 0.00 55 1017.2
20260509182705 56 118 7.0 8.0 0.00 0.00 0.00 52 1017.2
20260509181205 58 109 7.0 9.0 0.00 0.00 0.00 50 1017.2
20260509180206 58 118 9.0 13.0 0.00 0.00 0.00 49 1017.2
20260509175707 58 114 9.0 13.0 0.00 0.00 0.00 49 1017.2
20260509175205 58 103 8.0 14.0 0.00 0.00 0.00 49 1017.2
20260509174205 59 119 7.0 8.0 0.00 0.00 0.00 48 1017.3
20260509172704 59 97 10.0 15.0 0.00 0.00 0.00 47 1017.3
20260509172204 59 122 7.0 10.0 0.00 0.00 0.00 47 1017.4
20260509171705 59 112 9.0 14.0 0.00 0.00 0.00 46 1017.4
20260509171204 60 100 10.0 13.0 0.00 0.00 0.00 45 1017.4
20260509170205 60 115 10.0 16.0 0.00 0.00 0.00 45 1017.5
20260509164705 60 130 9.0 15.0 0.00 0.00 0.00 45 1017.6
20260509163705 60 122 14.0 17.0 0.00 0.00 0.00 44 1017.6
20260509162204 60 125 10.0 14.0 0.00 0.00 0.00 43 1017.8
20260509161704 60 113 10.0 16.0 0.00 0.00 0.00 43 1017.8
20260509161205 60 112 14.0 18.0 0.00 0.00 0.00 41 1017.9
20260509160705 60 99 16.0 20.0 0.00 0.00 0.00 41 1017.9
20260509160204 60 105 14.0 18.0 0.00 0.00 0.00 41 1017.9
20260509154204 61 111 13.0 16.0 0.00 0.00 0.00 42 1018.2
20260509153704 61 121 13.0 18.0 0.00 0.00 0.00 41 1018.2
20260509153204 61 114 13.0 21.0 0.00 0.00 0.00 41 1018.3
20260509151706 61 109 13.0 21.0 0.00 0.00 0.00 42 1018.4
20260509150705 61 108 10.0 15.0 0.00 0.00 0.00 42 1018.5
20260509150204 61 124 10.0 16.0 0.00 0.00 0.00 43 1018.5
20260509145704 61 127 15.0 17.0 0.00 0.00 0.00 42 1018.5
20260509145205 62 108 14.0 18.0 0.00 0.00 0.00 41 1018.6
20260509144704 62 115 14.0 18.0 0.00 0.00 0.00 42 1018.6
20260509142204 62 102 13.0 18.0 0.00 0.00 0.00 40 1018.8
20260509141704 62 119 13.0 17.0 0.00 0.00 0.00 40 1018.8
20260509140704 62 107 10.0 20.0 0.00 0.00 0.00 40 1019.0
20260509140205 62 99 12.0 17.0 0.00 0.00 0.00 39 1019.0
20260509133205 63 113 15.0 23.0 0.00 0.00 0.00 39 1019.1
20260509131704 63 124 8.0 13.0 0.00 0.00 0.00 39 1019.5
20260509131206 63 97 12.0 17.0 0.00 0.00 0.00 37 1019.5
20260509130704 63 99 12.0 20.0 0.00 0.00 0.00 39 1019.7
20260509130203 63 140 7.0 14.0 0.00 0.00 0.00 39 1019.7
20260509125704 63 113 7.0 15.0 0.00 0.00 0.00 38 1019.9
20260509125204 63 119 5.0 8.0 0.00 0.00 0.00 37 1019.9
20260509123204 63 137 8.0 15.0 0.00 0.00 0.00 39 1020.1
20260509120704 63 163 8.0 13.0 0.00 0.00 0.00 37 1020.4
20260509120205 63 127 12.0 16.0 0.00 0.00 0.00 38 1020.4